Weather History for MMLP - January, 2013

Change the Weather History Date:

Thursday, January 3, 2013

  Actual Average Record
Temperature  
Mean Temperature 66 °F -  
Max Temperature 72 °F 75 °F 87 °F (2006)
Min Temperature 61 °F 52 °F 42 °F (2011)
Cooling Degree Days 2    
Growing Degree Days 16 (Base 50)    
Moisture  
Dew Point 56 °F    
Average Humidity 71    
Maximum Humidity 89    
Minimum Humidity 51    
Precipitation  
Precipitation 0.00 in - - ()
Sea Level Pressure  
Sea Level Pressure 30.04 in    
Wind  
Wind Speed 4 mph ()    
Max Wind Speed 17 mph    
Max Gust Speed -    
Visibility 9.3 miles    
Events Rain    
Averages and records for this station are not official NWS values.
T = Trace of Precipitation, MM = Missing Value Source: Averaged Metar Reports

Daily Weather History Graph

Daily Weather History Graph

Search for Another Location

Airport or City:

Trip Planner

Search our weather history database for the weather conditions in past years. The results will help you decide how hot, cold, wet, or windy it might be!

Date:

Astronomy

Jan. 03, 2013 Rise Set
Actual Time 7:05 AM MST 5:47 PM MST
Civil Twilight 6:40 AM MST 6:11 PM MST
Nautical Twilight 6:12 AM MST 6:40 PM MST
Astronomical Twilight 5:44 AM MST 7:07 PM MST
Moon 11:39 PM MST (1/3) 11:01 AM MST (1/3)
Length of Visible Light 11h 31m
Length of Day
10h 41m
Waning Gibbous, 65% of the Moon is Illuminated
Jan 3
Waning Gibbous
Jan 4
Last Quarter
Jan 11
New
Jan 18
First Quarter
Jan 26
Full

Hourly Weather History & Observations

Time (MST) Temp. Dew Point Humidity Pressure Visibility Wind Dir Wind Speed Gust Speed Precip Events Conditions
1:45 AM 63 °F 59 °F 82% 29.94 in 2 mi South 2.2 mph - -   Mostly Cloudy
4:50 AM 63 °F 61 °F 89% 29.99 in 2 mi Calm Calm - -   Mostly Cloudy
5:56 AM 60.8 °F 55.4 °F 82% 29.98 in 7.0 mi Calm Calm - N/A   Mostly Cloudy
6:54 AM 60.8 °F 57.2 °F 88% 29.99 in 8.0 mi Calm Calm - N/A   Mostly Cloudy
7:10 AM 62.6 °F 57.2 °F 82% 30.00 in 7.0 mi North 4.6 mph - N/A   Overcast
7:40 AM 63 °F 61 °F 89% 30.04 in 16 mi ENE 2.2 mph - -   Mostly Cloudy
7:49 AM 62.6 °F 59.0 °F 88% 30.09 in 7.0 mi Calm Calm - N/A   Overcast
8:48 AM 62.6 °F 59.0 °F 88% 30.04 in 8.0 mi Calm Calm - N/A   Overcast
9:48 AM 62.6 °F 57.2 °F 82% 30.07 in 8.0 mi NNE 4.6 mph - N/A   Overcast
10:47 AM 64.4 °F 57.2 °F 77% 30.12 in 8.0 mi NE 6.9 mph - N/A   Overcast
10:50 AM 65 °F 58 °F 71% 30.05 in 16 mi NNE 4.5 mph - - Rain Light Rain
11:48 AM 64.4 °F 55.4 °F 73% 30.05 in 10.0 mi NNE 9.2 mph - N/A   Overcast
12:41 PM 66.2 °F 53.6 °F 64% 30.03 in 10.0 mi NNE 10.4 mph - N/A   Overcast
1:50 PM 71 °F 57 °F 51% 30.00 in 19 mi NNW 4.5 mph - -   Partly Cloudy
1:52 PM 68.0 °F 55.4 °F 64% 30.09 in 10.0 mi NE 8.1 mph - N/A   Mostly Cloudy
2:51 PM 69.8 °F 53.6 °F 56% 29.99 in 10.0 mi North 10.4 mph - N/A   Scattered Clouds
3:44 PM 69.8 °F 53.6 °F 56% 30.00 in 10.0 mi NNE 17.3 mph - N/A   Scattered Clouds
4:41 PM 68.0 °F 53.6 °F 60% 30.06 in 10.0 mi North 8.1 mph - N/A   Scattered Clouds
4:50 PM 68 °F 56 °F 57% 30.01 in 19 mi North 6.7 mph - -   Scattered Clouds
5:46 PM 66.2 °F 53.6 °F 64% 30.02 in 10.0 mi NNE 6.9 mph - N/A   Scattered Clouds
6:40 PM 64.4 °F 53.6 °F 68% 30.03 in 10.0 mi North 12.7 mph - N/A   Scattered Clouds
7:40 PM 64.4 °F 53.6 °F 68% 30.10 in 10.0 mi NNE 12.7 mph - N/A   Scattered Clouds
7:50 PM 65 °F 56 °F 64% 30.06 in 2 mi North 6.7 mph - -   Scattered Clouds
8:40 PM 64.4 °F 51.8 °F 64% 30.06 in 10.0 mi North 13.8 mph - N/A   Scattered Clouds
9:48 PM 64.4 °F 51.8 °F 64% 30.08 in 10.0 mi NNE 10.4 mph - N/A   Scattered Clouds
10:43 PM 62.6 °F 51.8 °F 68% 30.14 in 10.0 mi NNE 10.4 mph - N/A   Partly Cloudy
10:45 PM 64 °F 52 °F 57% 30.05 in 2 mi North 6.7 mph - -   Scattered Clouds